Погода в Ушинке

Россия / Пензенская область     53°28′28″N   42°48′33″E
темп.,
°C
ветер,
м/с
пор.,
м/с
влажн.,
%
обл.,
%
осадки,
мм/ч
давл.,
гПа
погр.,
м
19 апреля, пн
пн1900:00+9всв4973100 0.1 1019330
03:00+9всв4979100 0.2 1019426
06:00+7всв4976100 0.3 1018394
09:00+7в4881100 4.6 1019733
12:00+7вюв61089100 9.0 1020947
15:00+8вюв61086100 14.9 10201072
18:00+7в7107799 1.3 1020820
21:00+7всв61271100 1.3 1020488
20 апреля, вт
вт2000:00+6в61277100 0.0 1020659
03:00+5в71288100 1.6 1020850
06:00+4в71386100 1.2 1020740
09:00+4вюв81486100 1.9 1020781
12:00+4вюв91686100 0.6 1020819
15:00+3вюв91686100 1.3 1019752
18:00+4вюв91883100 0.3 1016954
21:00+5вюв122288100 4.3 1012961
21 апреля, ср
ср2100:00+6вюв132588100 2.8 10081280
03:00+7юв122289100 2.9 10061027
06:00+7юв122190100 1.1 1005909
09:00+8ююв91593100 2.8 1007853
12:00+9юз7977100 0.9 10101066
15:00+10ююз6974100 1.0 10121145
18:00+10ююз477895 0.1 1014486
21:00+7юз129191 0.2 101615
22 апреля, чт
чт2200:00+6ссв119245 0.3 101610
03:00+6ююв229298 0.3 101725
06:00+5ю249683 0.2 101875
09:00+10ююз587395 0.3 1019689
12:00+13ююз78597 0.5 10191506
15:00+13юз7855100 1.6 10201837
18:00+12ююз476496 0.1 1020269
21:00+9ю35765 0.2 102276
23 апреля, пт
пт2300:00+8ю34775 0.0 102248
03:00+7ююв3579100 0.0 102284
06:00+8ю3678100 0.0 1023128
09:00+12ю586797 0.0 1023393
12:00+16ююз564965 0.0 10221638
15:00+15юз3557100 0.2 1021282
18:00+14ю366224 0.4 1021204
21:00+10юв357470 0.6 102171